星链-37876(STARLINK-37876)

导读

STARLINK-37876(NORAD编号69656)是美国SpaceX公司星链低轨宽带星座的通信卫星,隶属于Starlink Group 10-38任务批次,于2026年5月1日(UTC)由猎鹰9号Block 5火箭从卡纳维拉尔角太空军基地SLC-40发射工位发射升空,对应国际标识2026-099系列。 该卫星部署于倾角约70度的近地轨道,属于星链V2优化版本,核心功能是为全球提供低时延高速卫星互联网接入服务,当前处于轨道部署后的在轨测试/运营阶段,相关轨道参数由北美防空司令部持续跟踪更新,暂未公开故障或异常通报。

基本信息
目录编号:
69656
目录名称:
STARLINK-37876
国际标识:
2026-143H
轨道中心:
EARTH
卫星名称:
星链-37876
卫星全名:
星链-37876(STARLINK-37876)
卫星状态:
在轨 (已飞行75 天)
发射日期:
2026-06-21 UTC
国别 :
美国 (US)
星等 :
--
轨道信息
数据来源 国际轨道数据 AOE轨道数据
星历时间 2026-09-02T21:25:15+0800
1天前
查看轨道信息
2026-09-03T23:00:00+0800
11小时前
查看轨道信息
半长轴 6843.679km 6843.687km
偏心率 0.0000566 0.0000225
轨道倾角 97.284° 97.285°
近地点辐角 86.600° 342.490°
升交点赤经 289.015° 290.065°
平近点角 273.530° 137.407°
近地点 465.154km 465.396km
远地点 465.93km 465.704km
周期 93.906分钟 93.906分钟
每日圈数 15.334455 15.334429
详细信息
固有亮度:
5
最大亮度:
2.5
卫星平台:
Starlink V1.0
覆盖范围:
全球
运营商:
太空探索技术公司
运营商所在国:
美国
制造商(研发单位):
太空探索技术公司
制造商所在国:
美国
使用方式:
暂无
卫星简介
Starlink 计划是 SpaceX 推出的全球卫星互联网项目,通过发射低轨道卫星,为全球尤其是偏远地区提供高速、低延迟的互联网服务。自 2019 年起,Starlink 已部署数千颗卫星,旨在缩小全球数字鸿沟,推动互联网普及。该项目还为军事、航空等行业提供通信支持,带来广泛经济效益。
2D轨道图
3D轨道图
轨道高度分析图
轨道倾角分析图
轨道综合分析图
查看轨道综合分析图
交会数据列表
事件ID 空间交会对象 最接近时刻(TCA) 交会距离 交会风险概率(CRP) 交会风险指数(CRI) 操作
CDM_260904-082306-223506-965622
2026-09-04T
08:23:13+0000
2.703 km
极远距离
1.533607E-6 低风险 0.39